Powrót do katalogu

STARLINK-32761

AktywnyŁącznośćVLEO
NORAD 62749·PAYLOAD·🇺🇸 United States

Wystrzelony Jan 21, 2025 z Cape Canaveral Space Force Station

Loading…

Następne Przeloty (najbliższe 24 godziny)

TLE

ŚwieżeSource: CelesTrak SupGP

Epoka: Sep 14, 2026, 21:27 UTC

1 62749C 25014Q   26257.89423611 -.00051087  00000+0 -18500-2 0  2571
2 62749  43.0028 169.1612 0001331 267.0220 165.7300 15.27609767    13

Śledź STARLINK-32761 w czasie rzeczywistym z AllMySat

Download on the App Store